Location: Theodore Roosevelt National Park
(46.9990°N, 103.4631°W)
Time: 12:01:01
(UTC-06:00)

Iridium 37 - Visible Passes

Search period start: 30 August 2015 00:00
Search period end: 09 September 2015 00:00
Orbit: 776 x 779 km, 86.4° (Epoch: 30 August)

Date Brightness Start Highest point End Pass type
(mag) Time Alt. Az. Time Alt. Az. Time Alt. Az.
30 Aug 6.0 05:17:38 10° N 05:22:51 67° E 05:28:02 10° SSE visible
31 Aug 7.1 04:44:19 10° N 04:49:10 38° ENE 04:54:03 10° SSE visible
01 Sep 8.0 04:11:18 10° NNE 04:15:21 23° ENE 04:19:30 10° SE visible
02 Sep 8.5 03:38:56 10° NE 03:41:21 13° ENE 03:44:01 10° E visible
02 Sep 5.5 05:17:43 10° N 05:22:59 88° W 05:28:12 10° S visible
03 Sep 6.4 04:44:16 10° N 04:49:23 53° E 04:54:30 10° SSE visible
04 Sep 7.4 04:11:03 10° NNE 04:15:39 31° ENE 04:20:18 10° SE visible
05 Sep 8.2 03:38:13 10° NNE 03:41:45 19° ENE 03:45:27 10° ESE visible
05 Sep 5.5 05:17:53 10° N 05:23:04 63° W 05:28:12 10° S visible
06 Sep 8.6 03:06:39 10° NE 03:07:42 11° ENE 03:09:03 10° E visible
06 Sep 5.7 04:44:19 10° N 04:49:33 75° E 04:54:46 10° S visible
07 Sep 6.7 04:10:56 10° N 04:15:54 43° E 04:20:52 10° SSE visible
08 Sep 7.6 03:37:51 10° NNE 03:42:06 25° ENE 03:46:27 10° SE visible
08 Sep 5.8 05:18:08 10° NNW 05:23:07 45° W 05:28:02 10° SSW visible
